Regional Weather Roundup
Issued by NWS

Home | Current Version | Previous Version | Graphics & Text | Print | Product List | Glossary On
Versions: 1 2 3 4 5 6 7 8 9 10 11 12 13 14 15 16 17 18 19 20 21 22 23 24 25 26 27 28 29 30 31 32 33 34 35 36 37 38 39 40 41 42 43 44 45 46 47 48 49 50
000
ASUS43 KBIS 310010
RWRND

NORTH DAKOTA REGIONAL WEATHER ROUNDUP
NATIONAL WEATHER SERVICE BISMARCK ND
700 PM CDT SAT JUL 30 2016

NOTE: "FAIR" INDICATES FEW OR NO CLOUDS BELOW 12,000 FEET WITH NO
SIGNIFICANT WEATHER AND/OR OBSTRUCTIONS TO VISIBILITY.


NDZ001>003-009>011-017-310100-
NORTHWEST NORTH DAKOTA

CITY           SKY/WX    TMP DP  RH WIND       PRES   REMARKS
WILLISTON      SUNNY     89  55  31 E16G22    29.77F
6HR MIN TEMP:  83; 6HR MAX TEMP:  90;

MINOT          SUNNY     87  60  40 CALM      29.80F
MINOT AFB      SUNNY     84  58  41 S7        29.79F
$$

NDZ018>021-031>035-040>046-310100-
SOUTHWEST NORTH DAKOTA

CITY           SKY/WX    TMP DP  RH WIND       PRES   REMARKS
BISMARCK       SUNNY     85  65  51 SE10      29.80F
6HR MIN TEMP:  77; 6HR MAX TEMP:  87;

DICKINSON      SUNNY     86  53  32 NE7       29.79F
GARRISON         N/A     84  65  52 SE3       29.80F
6HR MIN TEMP:  77; 6HR MAX TEMP:  84;

HETTINGER ARPT SUNNY     92  53  26 SE7       29.80F
$$

NDZ004>008-012>016-024-026-027-054-310100-
NORTHEAST NORTH DAKOTA

CITY           SKY/WX    TMP DP  RH WIND       PRES   REMARKS
GRAND FORKS    CLOUDY    81  61  50 S16G23    29.88F
GRND FRKS AFB  MOSUNNY   80  62  54 S18       29.88F
DEVILS LAKE    MOSUNNY   78  62  57 S17G26    29.87R
$$

NDZ022-023-025-028>030-036>039-047>053-310100-
SOUTHEAST NORTH DAKOTA

CITY           SKY/WX    TMP DP  RH WIND       PRES   REMARKS
FARGO          MOSUNNY   80  59  48 SE15G23   29.91F
6HR MIN TEMP:  78; 6HR MAX TEMP:  81;

JAMESTOWN      MOSUNNY   78  62  57 S10       29.87F
$$





USA.gov is the U.S. government's official web portal to all federal, state and local government web resources and services.